Tracking 30923 objects as of 1-Jul-2025
HD Live streaming from Space Station
objects crossing your sky now

CZ-3B R/B

Track CZ-3B R/B now!
10-day predictions


NORAD ID: 44077
Int'l Code: 2019-017B
Perigee: 199.0 km
Apogee: 16,698.0 km
Inclination: 26.8 °
Period: 299.2 minutes
Semi major axis: 14819 km
RCS: Unknown
Launch date: March 31, 2019
Source: People's Republic of China (PRC)
Launch site: Xichang Space Center, China (XSC)

Note: This is a ROCKET BODY
Your satellite tracking list
Your tracking list is empty




NASA's NSSDC Master Catalog

Two Line Element Set (TLE):
1 44077U 19017B   25181.29474658  .00048872  13972-6  95845-3 0  9993
2 44077  26.7995 200.4886 5566657 191.1667 147.9958  4.81230914 72274
Source of the keplerian elements: AFSPC